TimeCST,TemperatureF,Dew PointF,Humidity,Sea Level PressureIn,VisibilityMPH,Wind Direction,Wind SpeedMPH,Gust SpeedMPH,PrecipitationIn,Events,Conditions,WindDirDegrees,DateUTC
12:15 AM,66.2,66.2,100,29.62,0.2,SE,12.7,-,N/A,Fog,Fog,140,2013-02-25 06:15:00
12:35 AM,66.2,66.2,100,29.62,0.2,SE,13.8,-,N/A,Fog,Fog,130,2013-02-25 06:35:00
12:55 AM,66.2,66.2,100,29.61,0.2,SE,13.8,-,N/A,Fog,Fog,140,2013-02-25 06:55:00
1:15 AM,68.0,68.0,100,29.60,0.2,SE,16.1,-,N/A,Fog,Fog,140,2013-02-25 07:15:00
1:35 AM,68.0,68.0,100,29.60,0.2,SE,13.8,-,N/A,Fog,Fog,140,2013-02-25 07:35:00
1:55 AM,68.0,68.0,100,29.59,0.2,SE,12.7,-,N/A,Fog,Fog,130,2013-02-25 07:55:00
2:15 AM,68.0,68.0,100,29.58,0.2,SE,15.0,-,N/A,Fog,Fog,140,2013-02-25 08:15:00
2:35 AM,68.0,68.0,100,29.57,0.2,SSE,15.0,-,N/A,Fog,Fog,150,2013-02-25 08:35:00
2:55 AM,68.0,68.0,100,29.56,0.2,SSE,15.0,-,N/A,Fog,Fog,150,2013-02-25 08:55:00
3:15 AM,68.0,68.0,100,29.55,0.2,SSE,17.3,-,N/A,Fog,Fog,160,2013-02-25 09:15:00
3:35 AM,68.0,68.0,100,29.55,0.2,SSE,13.8,-,N/A,Fog,Fog,160,2013-02-25 09:35:00
3:55 AM,68.0,68.0,100,29.56,0.2,SSE,6.9,-,N/A,Fog,Fog,160,2013-02-25 09:55:00
4:15 AM,66.2,66.2,100,29.55,0.2,South,5.8,-,N/A,Fog,Fog,180,2013-02-25 10:15:00
4:35 AM,66.2,66.2,100,29.56,0.2,South,6.9,-,N/A,Fog,Fog,190,2013-02-25 10:35:00
4:55 AM,66.2,66.2,100,29.55,0.2,South,10.4,-,N/A,Fog,Fog,190,2013-02-25 10:55:00
5:15 AM,66.2,66.2,100,29.56,0.2,SSW,9.2,-,N/A,Fog,Fog,200,2013-02-25 11:15:00
5:35 AM,66.2,66.2,100,29.56,0.2,SW,9.2,-,N/A,Fog,Fog,220,2013-02-25 11:35:00
5:55 AM,66.2,66.2,100,29.56,0.2,South,11.5,-,N/A,Fog,Fog,190,2013-02-25 11:55:00
6:15 AM,66.2,66.2,100,29.56,0.2,South,16.1,-,N/A,Fog,Fog,180,2013-02-25 12:15:00
6:35 AM,68.0,68.0,100,29.56,0.2,South,18.4,-,N/A,Fog,Fog,170,2013-02-25 12:35:00
6:55 AM,68.0,68.0,100,29.56,0.2,South,18.4,-,N/A,Fog,Fog,180,2013-02-25 12:55:00
7:15 AM,68.0,68.0,100,29.57,0.2,South,20.7,-,N/A,Fog,Fog,180,2013-02-25 13:15:00
7:35 AM,68.0,68.0,100,29.57,0.2,South,19.6,25.3,N/A,Fog,Fog,180,2013-02-25 13:35:00
7:55 AM,68.0,68.0,100,29.59,0.2,South,16.1,-,N/A,Fog,Fog,180,2013-02-25 13:55:00
8:15 AM,68.0,68.0,100,29.61,0.2,SSW,13.8,-,N/A,Fog,Fog,210,2013-02-25 14:15:00
8:35 AM,68.0,68.0,100,29.62,-9999.0,SW,12.7,-,N/A,,Overcast,230,2013-02-25 14:35:00
8:55 AM,68.0,68.0,100,29.64,0.2,WSW,13.8,-,N/A,Fog,Fog,250,2013-02-25 14:55:00
9:15 AM,68.0,68.0,100,29.65,3.0,West,4.6,-,N/A,,Mostly Cloudy,260,2013-02-25 15:15:00
9:35 AM,68.0,68.0,100,29.65,1.8,WNW,11.5,-,N/A,,Mostly Cloudy,300,2013-02-25 15:35:00
9:55 AM,68.0,68.0,100,29.66,2.5,NW,15.0,-,N/A,,Partly Cloudy,310,2013-02-25 15:55:00
10:15 AM,68.0,68.0,100,29.66,4.0,NW,23.0,-,N/A,,Clear,310,2013-02-25 16:15:00
10:35 AM,68.0,60.8,78,29.68,6.0,NW,25.3,35.7,N/A,,Haze,320,2013-02-25 16:35:00
10:55 AM,68.0,46.4,46,29.69,8.0,NW,26.5,38.0,N/A,,Mostly Cloudy,320,2013-02-25 16:55:00
11:15 AM,68.0,44.6,43,29.70,9.0,NW,28.8,36.8,N/A,,Partly Cloudy,320,2013-02-25 17:15:00
11:35 AM,68.0,44.6,43,29.71,9.0,NW,26.5,-,N/A,,Clear,320,2013-02-25 17:35:00
11:55 AM,69.8,44.6,40,29.71,8.0,NW,25.3,31.1,N/A,,Clear,320,2013-02-25 17:55:00
12:15 PM,69.8,44.6,40,29.71,8.0,NW,24.2,29.9,N/A,,Clear,320,2013-02-25 18:15:00
12:35 PM,69.8,42.8,38,29.72,6.0,NW,23.0,-,N/A,,Haze,310,2013-02-25 18:35:00
12:55 PM,69.8,41.0,35,29.72,5.0,NW,23.0,28.8,N/A,,Haze,320,2013-02-25 18:55:00
1:35 PM,69.8,39.2,33,29.70,4.0,NW,23.0,29.9,N/A,,Haze,310,2013-02-25 19:35:00
1:55 PM,69.8,37.4,31,29.69,5.0,NW,27.6,34.5,N/A,,Haze,310,2013-02-25 19:55:00
2:15 PM,69.8,39.2,33,29.69,3.0,NW,27.6,-,N/A,,Haze,310,2013-02-25 20:15:00
2:35 PM,69.8,37.4,31,29.69,6.0,NW,28.8,35.7,N/A,,Haze,310,2013-02-25 20:35:00
2:55 PM,69.8,35.6,28,29.68,6.0,NW,32.2,-,N/A,,Haze,310,2013-02-25 20:55:00
3:15 PM,69.8,33.8,27,29.67,5.0,NW,28.8,40.3,N/A,,Haze,310,2013-02-25 21:15:00
3:35 PM,69.8,32.0,25,29.67,5.0,NW,38.0,47.2,N/A,,Haze,310,2013-02-25 21:35:00
3:55 PM,69.8,33.8,27,29.68,6.0,NW,32.2,42.6,N/A,,Haze,310,2013-02-25 21:55:00
4:15 PM,69.8,35.6,28,29.70,7.0,NW,25.3,40.3,N/A,,Clear,310,2013-02-25 22:15:00
4:35 PM,68.0,37.4,33,29.71,4.0,NW,28.8,39.1,N/A,,Haze,310,2013-02-25 22:35:00
4:55 PM,68.0,41.0,37,29.72,6.0,NW,26.5,40.3,N/A,,Haze,310,2013-02-25 22:55:00
5:15 PM,68.0,37.4,33,29.73,3.0,NW,26.5,35.7,N/A,,Haze,310,2013-02-25 23:15:00
5:35 PM,66.2,41.0,40,29.73,2.5,NW,26.5,38.0,N/A,,Haze,320,2013-02-25 23:35:00
5:55 PM,66.2,37.4,35,29.74,1.8,NW,31.1,41.4,N/A,,Haze,310,2013-02-25 23:55:00
6:15 PM,66.2,37.4,35,29.76,1.2,NW,29.9,40.3,N/A,,Haze,320,2013-02-26 00:15:00
6:35 PM,66.2,35.6,32,29.76,1.2,NW,32.2,39.1,N/A,,Haze,310,2013-02-26 00:35:00
6:55 PM,66.2,35.6,32,29.77,5.0,NW,28.8,35.7,N/A,,Haze,310,2013-02-26 00:55:00
7:15 PM,66.2,35.6,32,29.78,5.0,NW,24.2,34.5,N/A,,Haze,310,2013-02-26 01:15:00
7:35 PM,66.2,37.4,35,29.79,9.0,NW,28.8,39.1,N/A,,Clear,310,2013-02-26 01:35:00
7:55 PM,66.2,37.4,35,29.80,9.0,NW,29.9,36.8,N/A,,Clear,310,2013-02-26 01:55:00
8:15 PM,64.4,37.4,37,29.81,10.0,NW,29.9,40.3,N/A,,Clear,310,2013-02-26 02:15:00
8:35 PM,64.4,33.8,32,29.81,9.0,NW,29.9,41.4,N/A,,Clear,310,2013-02-26 02:35:00
8:55 PM,64.4,33.8,32,29.82,5.0,NW,33.4,42.6,N/A,,Haze,310,2013-02-26 02:55:00
9:15 PM,64.4,35.6,34,29.83,5.0,NW,26.5,44.9,N/A,,Haze,310,2013-02-26 03:15:00
9:35 PM,64.4,33.8,32,29.83,8.0,NW,34.5,44.9,N/A,,Clear,310,2013-02-26 03:35:00
9:55 PM,64.4,35.6,34,29.84,7.0,NW,32.2,43.7,N/A,,Clear,320,2013-02-26 03:55:00
10:15 PM,64.4,35.6,34,29.85,9.0,NW,32.2,42.6,N/A,,Clear,320,2013-02-26 04:15:00
10:35 PM,64.4,33.8,32,29.85,10.0,NW,31.1,39.1,N/A,,Clear,320,2013-02-26 04:35:00
10:55 PM,62.6,35.6,37,29.86,10.0,NW,31.1,42.6,N/A,,Clear,320,2013-02-26 04:55:00
11:15 PM,62.6,33.8,34,29.87,10.0,NW,31.1,38.0,N/A,,Clear,320,2013-02-26 05:15:00
11:35 PM,62.6,33.8,34,29.87,10.0,NW,26.5,35.7,N/A,,Clear,310,2013-02-26 05:35:00
11:55 PM,62.6,33.8,34,29.88,10.0,NW,26.5,36.8,N/A,,Clear,320,2013-02-26 05:55:00